1485903601.15,766,9.88,73252.5,-4.81,-7.19,-7.15,0,*56
1485903602.35,767,9.81,73252.3,-4.79,-7.15,-7.05,0,*5D
1485903603.56,768,9.88,73258.5,-4.81,-7.19,-7.15,0,*58
1485903604.75,769,9.88,73254.5,-4.79,-7.15,-7.15,0,*52
1485903606.0,770,9.88,73258.0,-4.81,-7.05,-7.01,0,*59
1485903607.25,771,9.88,73256.3,-4.81,-7.05,-7.05,0,*5C
1485903608.47,772,9.88,73256.0,-4.81,-7.19,-7.19,0,*5F
1485903609.68,773,9.88,73256.8,-4.81,-7.19,-7.19,0,*5E
1485903610.87,774,9.88,73256.5,-4.79,-7.19,-7.19,0,*5E
1485903612.08,775,9.88,73256.8,-4.79,-7.27,-7.19,0,*52
1485903613.31,776,9.88,73256.0,-4.79,-7.27,-7.31,0,*5B
1485903614.56,777,9.88,73256.8,-4.81,-7.27,-7.27,0,*5A
1485903615.82,778,9.81,73252.0,-4.81,-7.27,-7.27,0,*55
1485903617.05,779,9.88,73256.5,-4.79,-7.27,-7.27,0,*53
1485903618.28,780,9.88,73256.5,-4.79,-7.31,-7.27,0,*52
1485903619.54,781,9.88,73258.3,-4.81,-7.31,-7.27,0,*54
1485903620.77,782,9.88,73256.8,-4.79,-7.31,-7.31,0,*57
1485903622.0,783,9.88,73256.5,-4.79,-7.43,-7.35,0,*57
1485903623.26,784,9.88,73260.3,-4.81,-7.31,-7.31,0,*56
1485903624.49,785,9.88,73256.3,-4.79,-7.31,-7.31,0,*50
1485903625.72,786,9.88,73258.8,-4.79,-7.31,-7.27,0,*54
1485903626.95,787,9.88,73256.5,-4.79,-7.35,-7.27,0,*51
1485903628.19,788,9.88,73256.8,-4.81,-7.35,-7.19,0,*54
1485903629.39,789,9.88,73262.0,-4.79,-7.31,-7.15,0,*5A
1485903630.63,790,9.88,73262.3,-4.81,-7.35,-7.19,0,*5D
1485903631.86,791,9.88,73260.8,-4.81,-7.35,-7.19,0,*5C
1485903633.1,792,9.88,73258.5,-4.81,-7.31,-7.19,0,*5B
1485903634.35,793,9.88,73258.5,-4.81,-7.35,-7.27,0,*53
1485903635.62,794,9.88,73258.0,-4.81,-7.43,-7.27,0,*55
1485903636.87,795,9.88,73256.3,-4.81,-7.31,-7.27,0,*51
1485903638.1,796,9.88,73256.8,-4.79,-7.27,-7.05,0,*52
1485903639.33,797,9.88,73254.5,-4.81,-7.15,-6.93,0,*5B
1485903640.59,798,9.88,73254.5,-4.81,-7.05,-6.93,0,*55
1485903641.82,799,9.88,73254.3,-4.81,-7.15,-6.93,0,*55
1485903643.03,800,9.88,73256.8,-4.79,-7.19,-6.93,0,*51
1485903644.22,801,9.88,73258.8,-4.79,-7.15,-6.89,0,*57
1485903645.42,802,9.88,73256.0,-4.79,-7.15,-6.93,0,*5F
1485903646.62,803,9.88,73254.8,-4.79,-7.15,-7.05,0,*50
1485903647.83,804,9.88,73258.3,-4.79,-7.19,-7.05,0,*5B
1485903649.04,805,9.88,73256.5,-4.77,-7.23,-7.15,0,*5C
1485903650.25,806,9.88,73256.8,-4.79,-7.27,-7.15,0,*55
1485903651.45,807,9.88,73260.0,-4.79,-7.19,-7.05,0,*58
1485903652.69,808,9.88,73258.8,-4.81,-7.15,-6.93,0,*52
1485903653.89,809,9.88,73258.0,-4.79,-7.15,-7.05,0,*5A
1485903655.09,810,9.81,73254.5,-4.79,-7.19,-7.05,0,*5E
1485903656.3,811,9.88,73256.0,-4.79,-7.27,-7.15,0,*53
1485903657.51,812,9.88,73256.3,-4.77,-7.23,-7.11,0,*5E
1485903658.73,813,9.88,73256.3,-4.77,-7.23,-7.11,0,*5F
1485903659.96,814,9.88,73258.5,-4.73,-7.27,-7.11,0,*58
1485903661.18,815,9.88,73256.5,-4.77,-7.23,-7.11,0,*59
1485903662.4,816,9.81,73254.8,-4.79,-7.27,-7.05,0,*55
1485903663.61,817,9.88,73256.8,-4.79,-7.27,-7.15,0,*55
1485903664.83,818,9.88,73258.3,-4.77,-7.23,-7.11,0,*54
1485903666.04,819,9.88,73258.8,-4.77,-7.23,-7.11,0,*55
1485903667.25,820,9.88,73256.5,-4.79,-7.27,-7.15,0,*51
1485903668.49,821,9.88,73258.5,-4.77,-7.27,-7.11,0,*5A
1485903669.71,822,9.81,73252.3,-4.77,-7.23,-7.11,0,*5D
1485903670.92,823,9.88,73254.5,-4.77,-7.23,-7.11,0,*5C
1485903672.13,824,9.88,73256.5,-4.79,-7.27,-7.15,0,*55
1485903673.34,825,9.88,73254.8,-4.77,-7.23,-7.11,0,*5A
1485903674.56,826,9.81,73252.0,-4.77,-7.23,-7.15,0,*5D
1485903675.77,827,9.88,73256.8,-4.77,-7.23,-7.11,0,*58
1485903677.01,828,9.88,73254.0,-4.77,-7.15,-7.01,0,*53
1485903678.25,829,9.88,73252.5,-4.77,-7.15,-7.01,0,*52
1485903679.49,830,9.88,73254.0,-4.77,-7.11,-6.97,0,*50
1485903680.73,831,9.88,73258.0,-4.77,-7.11,-6.97,0,*51
1485903681.96,832,9.88,73256.8,-4.77,-7.15,-7.01,0,*58
1485903683.18,833,9.88,73254.5,-4.77,-7.23,-7.15,0,*59
1485903684.39,834,9.88,73256.0,-4.77,-7.23,-7.15,0,*5E
1485903685.63,835,9.88,73256.5,-4.77,-7.27,-7.15,0,*5B
1485903686.86,836,9.81,73254.0,-4.77,-7.27,-7.15,0,*58
1485903688.08,837,9.88,73256.8,-4.77,-7.23,-7.15,0,*5D
1485903689.29,838,9.88,73256.5,-4.77,-7.23,-7.15,0,*52
1485903690.53,839,9.88,73258.0,-4.77,-7.27,-7.11,0,*53
1485903691.76,840,9.88,73256.8,-4.77,-7.27,-7.15,0,*59
1485903693.0,841,9.88,73258.0,-4.77,-7.23,-7.27,0,*5D
1485903694.22,842,9.88,73258.5,-4.77,-7.23,-7.23,0,*5A
1485903695.43,843,9.81,73256.3,-4.77,-7.23,-7.15,0,*5E
1485903696.67,844,9.81,73256.0,-4.77,-7.27,-7.15,0,*5D
1485903697.9,845,9.88,73258.8,-4.77,-7.27,-7.15,0,*5C
1485903699.12,846,9.88,73258.0,-4.73,-7.19,-7.11,0,*52
1485903700.35,847,9.88,73262.0,-4.77,-7.27,-7.15,0,*5E
1485903701.57,848,9.88,73258.3,-4.77,-7.23,-7.15,0,*55
1485903702.78,849,9.81,73256.0,-4.77,-7.23,-7.15,0,*54
1485903704.02,850,9.88,73258.3,-4.77,-7.27,-7.15,0,*58
1485903705.23,851,9.81,73258.3,-4.77,-7.23,-7.15,0,*5D
1485903706.44,852,9.81,73256.3,-4.77,-7.23,-7.15,0,*5E
1485903707.66,853,9.88,73256.5,-4.73,-7.19,-7.11,0,*56
1485903708.87,854,9.88,73254.8,-4.77,-7.23,-7.15,0,*58
1485903710.09,855,9.81,73252.5,-4.77,-7.23,-7.15,0,*59
1485903711.3,856,9.88,73254.8,-4.77,-7.23,-7.15,0,*5A
1485903712.52,857,9.88,73256.8,-4.77,-7.23,-7.15,0,*5B
1485903713.73,858,9.88,73254.0,-4.77,-7.15,-7.15,0,*51
1485903714.94,859,9.81,73254.0,-4.77,-7.15,-7.15,0,*50
1485903716.13,860,9.81,73252.0,-4.79,-7.19,-7.19,0,*54
1485903717.32,861,9.81,73252.8,-4.79,-7.19,-7.19,0,*55
1485903718.53,862,9.88,73256.8,-4.77,-7.11,-7.15,0,*5C
1485903719.75,863,9.88,73256.5,-4.77,-7.15,-7.15,0,*59
1485903720.98,864,9.88,73256.0,-4.73,-7.11,-7.05,0,*5F
1485903722.19,865,9.88,73256.3,-4.77,-7.15,-7.15,0,*5F
1485903723.41,866,9.81,73252.8,-4.77,-7.11,-7.11,0,*5C
1485903724.63,867,9.88,73256.5,-4.77,-7.15,-7.11,0,*59
1485903725.85,868,9.88,73256.0,-4.77,-7.15,-7.11,0,*56
1485903727.06,869,9.81,73252.3,-4.77,-7.15,-7.15,0,*53
1485903728.25,870,9.88,73258.8,-4.79,-7.19,-7.19,0,*55
1485903729.47,871,9.81,73256.8,-4.77,-7.11,-7.11,0,*5A
1485903730.69,872,9.88,73258.3,-4.77,-7.11,-7.11,0,*59
1485903731.91,873,9.81,73254.3,-4.77,-7.15,-7.15,0,*58
1485903733.12,874,9.88,73260.5,-4.77,-7.15,-7.11,0,*5B
1485903734.31,875,9.81,73256.0,-4.79,-7.19,-7.15,0,*5C
1485903735.55,876,9.88,73258.3,-4.73,-7.11,-6.93,0,*52
1485903736.74,877,9.88,73258.0,-4.79,-7.19,-7.15,0,*5E
1485903737.96,878,9.88,73258.5,-4.77,-7.11,-7.11,0,*53
1485903739.17,879,9.81,73254.5,-4.77,-7.15,-7.11,0,*56
1485903740.41,880,9.81,73254.8,-4.77,-7.15,-7.01,0,*51
1485903741.61,881,9.81,73256.0,-4.79,-7.15,-7.05,0,*5A
1485903742.81,882,9.81,73252.3,-4.79,-7.15,-7.05,0,*59
1485903744.04,883,9.88,73256.5,-4.79,-7.05,-7.01,0,*5D
1485903745.27,884,9.88,73256.5,-4.79,-7.01,-7.01,0,*5E
1485903746.5,885,9.81,73252.3,-4.79,-7.01,-6.93,0,*55
1485903747.73,886,9.88,73256.5,-4.79,-7.01,-6.93,0,*56
1485903748.96,887,9.88,73252.5,-4.79,-7.05,-7.01,0,*59
1485903750.19,888,9.88,73254.5,-4.79,-7.05,-7.01,0,*56
1485903751.43,889,9.88,73254.3,-4.79,-6.93,-6.93,0,*53
1485903752.66,890,9.88,73256.0,-4.79,-7.05,-7.01,0,*5F
1485903753.89,891,9.81,73252.3,-4.73,-6.93,-6.85,0,*57
1485903755.12,892,9.88,73256.3,-4.79,-7.01,-6.93,0,*53
1485903756.36,893,9.81,73254.5,-4.77,-6.97,-6.89,0,*59
1485903757.57,894,9.88,73256.3,-4.77,-6.85,-6.85,0,*51
1485903758.76,895,9.81,73256.0,-4.79,-6.81,-6.81,0,*5E
1485903759.95,896,9.81,73256.0,-4.79,-6.81,-6.77,0,*54
1485903761.13,897,9.88,73256.3,-4.79,-6.81,-6.77,0,*55
1485903762.32,898,9.88,73256.8,-4.79,-6.81,-6.77,0,*5A
1485903763.5,899,9.88,73256.0,-4.79,-6.77,-6.77,0,*52
1485903764.68,900,9.88,73258.8,-4.79,-6.77,-6.77,0,*53
1485903765.87,901,9.88,73256.5,-4.79,-6.81,-6.77,0,*5B
1485903767.08,902,9.88,73256.8,-4.77,-6.77,-6.73,0,*5B
1485903768.29,903,9.81,73254.3,-4.77,-6.77,-6.73,0,*5A
1485903769.5,904,9.81,73252.0,-4.73,-6.73,-6.69,0,*56
1485903770.71,905,9.88,73254.5,-4.77,-6.77,-6.77,0,*58
1485903771.9,906,9.88,73252.8,-4.79,-6.89,-6.81,0,*5D
1485903773.11,907,9.81,73252.3,-4.77,-6.85,-6.77,0,*57
1485903774.32,908,9.81,73254.3,-4.77,-6.85,-6.77,0,*58
1485903775.53,909,9.88,73252.8,-4.77,-6.85,-6.73,0,*5D
1485903776.77,910,9.88,73256.0,-4.77,-6.77,-6.63,0,*59
1485903777.98,911,9.88,73252.8,-4.77,-6.73,-6.59,0,*55
1485903779.19,912,9.88,73252.3,-4.73,-6.59,-6.55,0,*56
1485903780.4,913,9.88,73254.3,-4.77,-6.73,-6.59,0,*57
1485903781.64,914,9.88,73252.8,-4.77,-6.63,-6.51,0,*59
1485903782.85,915,9.81,73254.0,-4.73,-6.59,-6.43,0,*56
1485903784.06,916,9.88,73254.0,-4.77,-6.59,-6.51,0,*52
1485903785.28,917,9.88,73254.5,-4.73,-6.55,-6.47,0,*5C
1485903786.48,918,9.88,73256.3,-4.73,-6.69,-6.55,0,*5F
1485903787.69,919,9.88,73256.3,-4.73,-6.69,-6.77,0,*5E
1485903788.9,920,9.88,73252.8,-4.77,-6.77,-6.59,0,*53
1485903790.11,921,9.88,73254.0,-4.73,-6.59,-6.55,0,*56
1485903791.32,922,9.88,73256.8,-4.73,-6.47,-6.43,0,*5D
1485903792.53,923,9.81,73254.5,-4.73,-6.31,-6.39,0,*50
1485903793.74,924,9.81,73252.0,-4.73,-6.39,-6.31,0,*57
1485903794.95,925,9.81,73254.3,-4.73,-6.39,-6.31,0,*56
1485903796.16,926,9.81,73250.8,-4.77,-6.43,-6.43,0,*59
1485903797.37,927,9.88,73256.5,-4.73,-6.47,-6.39,0,*55
1485903798.58,928,9.88,73254.8,-4.73,-6.47,-6.47,0,*53
1485903799.75,929,9.88,73256.0,-4.71,-6.47,-6.43,0,*54
1485903800.97,930,9.81,73254.0,-4.73,-6.55,-6.47,0,*59
1485903802.17,931,9.88,73252.5,-4.73,-6.47,-6.43,0,*5F
1485903803.38,932,9.88,73254.0,-4.73,-6.43,-6.39,0,*55
1485903804.56,933,9.88,73256.8,-4.71,-6.47,-6.43,0,*5F
1485903805.74,934,9.81,73252.3,-4.71,-6.47,-6.43,0,*58
1485903806.94,935,9.88,73254.8,-4.69,-6.43,-6.39,0,*59
1485903808.12,936,9.81,73252.3,-4.71,-6.55,-6.55,0,*5E
1485903809.3,937,9.88,73252.8,-4.71,-6.55,-6.47,0,*5C
1485903810.49,938,9.88,73252.0,-4.71,-6.55,-6.43,0,*57
1485903811.69,939,9.88,73254.8,-4.69,-6.55,-6.51,0,*5C
1485903812.87,940,9.81,73250.5,-4.71,-6.59,-6.47,0,*50
1485903814.08,941,9.88,73252.8,-4.69,-6.55,-6.51,0,*53
1485903815.3,942,9.88,73254.5,-4.69,-6.51,-6.51,0,*54
1485903816.5,943,9.81,73248.5,-4.69,-6.55,-6.43,0,*52
1485903817.71,944,9.81,73252.5,-4.69,-6.51,-6.43,0,*51
1485903818.89,945,9.88,73254.3,-4.71,-6.43,-6.39,0,*57
1485903820.1,946,9.88,73254.8,-4.69,-6.39,-6.35,0,*5C
1485903821.3,947,9.88,73252.0,-4.69,-6.39,-6.35,0,*5D
1485903822.51,948,9.81,73252.0,-4.69,-6.39,-6.35,0,*52
1485903823.68,949,9.88,73252.0,-4.71,-6.47,-6.39,0,*5F
1485903824.86,950,9.81,73254.3,-4.71,-6.51,-6.39,0,*50
1485903826.07,951,9.81,73254.0,-4.69,-6.51,-6.43,0,*55
1485903827.28,952,9.88,73254.5,-4.69,-6.51,-6.43,0,*56
1485903828.46,953,9.81,73254.0,-4.71,-6.47,-6.43,0,*59
1485903829.67,954,9.81,73254.3,-4.69,-6.51,-6.43,0,*50
1485903830.88,955,9.88,73254.5,-4.69,-6.55,-6.39,0,*58
1485903832.09,956,9.81,73252.5,-4.67,-6.51,-6.39,0,*51
1485903833.3,957,9.81,73252.8,-4.67,-6.51,-6.39,0,*50
1485903834.51,958,9.88,73254.8,-4.67,-6.51,-6.39,0,*5F
1485903835.73,959,9.88,73252.8,-4.67,-6.51,-6.39,0,*5E
1485903836.94,960,9.81,73254.3,-4.67,-6.55,-6.43,0,*5D
1485903838.15,961,9.88,73254.3,-4.67,-6.55,-6.43,0,*5C
1485903839.37,962,9.88,73254.0,-4.67,-6.51,-6.43,0,*5B
1485903840.58,963,9.81,73252.5,-4.67,-6.55,-6.43,0,*5E
1485903841.79,964,9.88,73258.0,-4.67,-6.55,-6.39,0,*54
1485903843.0,965,9.88,73254.5,-4.67,-6.55,-6.39,0,*55
1485903844.21,966,9.81,73254.3,-4.67,-6.55,-6.43,0,*5B
1485903845.41,967,9.81,73254.3,-4.69,-6.55,-6.43,0,*54
1485903846.62,968,9.88,73256.8,-4.67,-6.69,-6.55,0,*5D
1485903847.83,969,9.88,73258.3,-4.69,-6.77,-6.55,0,*5D
1485903849.03,970,9.81,73254.8,-4.69,-6.77,-6.69,0,*5A
1485903850.24,971,9.81,73256.0,-4.69,-6.77,-6.69,0,*5B
1485903851.44,972,9.81,73252.3,-4.69,-6.77,-6.69,0,*58
1485903852.67,973,9.88,73258.5,-4.69,-6.77,-6.63,0,*53
1485903853.88,974,9.81,73252.8,-4.69,-6.77,-6.69,0,*5E
1485903855.11,975,9.88,73254.5,-4.67,-6.77,-6.63,0,*5B
1485903856.3,976,9.81,73254.5,-4.65,-6.73,-6.59,0,*57
1485903857.54,977,9.88,73254.3,-4.67,-6.77,-6.63,0,*59
1485903858.75,978,9.81,73250.3,-4.67,-6.77,-6.69,0,*5C
1485903859.96,979,9.88,73252.3,-4.67,-6.81,-6.55,0,*5B
1485903861.19,980,9.81,73250.0,-4.69,-6.81,-6.63,0,*56
1485903862.39,981,9.88,73254.5,-4.69,-6.89,-6.69,0,*55
1485903863.63,982,9.88,73252.8,-4.69,-6.81,-6.63,0,*54
1485903864.83,983,9.88,73252.3,-4.69,-6.89,-6.69,0,*57
1485903866.03,984,9.88,73252.3,-4.69,-6.89,-6.69,0,*50
1485903867.23,985,9.88,73252.5,-4.69,-6.81,-6.69,0,*59
1485903868.41,986,9.88,73254.8,-4.71,-6.81,-6.69,0,*53
1485903869.66,987,9.88,73254.5,-4.69,-6.63,-6.63,0,*5D
1485903870.89,988,9.88,73254.8,-4.69,-6.63,-6.55,0,*57
1485903872.09,989,9.88,73252.0,-4.69,-6.69,-6.51,0,*58
1485903873.29,990,9.81,73252.3,-4.69,-6.69,-6.55,0,*54
1485903874.5,991,9.88,73254.0,-4.69,-6.77,-6.55,0,*5A
1485903875.7,992,9.81,73252.0,-4.69,-6.69,-6.55,0,*56
1485903876.93,993,9.81,73252.5,-4.69,-6.63,-6.51,0,*59
1485903878.11,994,9.88,73252.5,-4.71,-6.73,-6.59,0,*5E
1485903879.31,995,9.88,73252.8,-4.69,-6.69,-6.55,0,*51
1485903880.51,996,9.81,73252.3,-4.69,-6.69,-6.51,0,*56
1485903881.72,997,9.88,73254.3,-4.69,-6.69,-6.55,0,*53
1485903882.94,998,9.88,73256.0,-4.69,-6.63,-6.55,0,*56
1485903884.15,999,9.88,73254.5,-4.69,-6.55,-6.51,0,*56
1485903885.36,1000,9.88,73256.3,-4.69,-6.69,-6.51,0,*61
1485903886.57,1001,9.88,73256.5,-4.69,-6.69,-6.51,0,*60
1485903887.78,1002,9.81,73254.0,-4.67,-6.69,-6.55,0,*69
1485903888.99,1003,9.88,73256.0,-4.65,-6.63,-6.59,0,*6C
1485903890.24,1004,9.88,73258.8,-4.67,-6.77,-6.63,0,*65
1485903891.45,1005,9.81,73256.5,-4.67,-6.81,-6.69,0,*67
1485903892.69,1006,9.81,73254.5,-4.67,-6.81,-6.63,0,*6E
1485903893.9,1007,9.81,73256.0,-4.69,-6.69,-6.55,0,*62
1485903895.11,1008,9.88,73254.5,-4.69,-6.69,-6.55,0,*6D
1485903896.32,1009,9.81,73252.0,-4.69,-6.69,-6.55,0,*6C
1485903897.55,1010,9.81,73252.0,-4.69,-6.63,-6.55,0,*6E
1485903898.76,1011,9.88,73254.5,-4.69,-6.69,-6.55,0,*65
1485903899.99,1012,9.88,73254.8,-4.69,-6.77,-6.63,0,*6C
1485903901.24,1013,9.81,73254.3,-4.67,-6.81,-6.63,0,*6A
1485903902.46,1014,9.81,73252.0,-4.69,-6.81,-6.51,0,*62
1485903903.7,1015,9.81,73250.5,-4.69,-6.81,-6.63,0,*62
1485903904.93,1016,9.81,73250.5,-4.69,-6.81,-6.63,0,*61
1485903906.15,1017,9.88,73254.5,-4.69,-6.77,-6.55,0,*6C
1485903907.36,1018,9.88,73252.8,-4.69,-6.81,-6.55,0,*6A
1485903908.58,1019,9.88,73252.5,-4.69,-6.77,-6.55,0,*62
1485903909.8,1020,9.88,73254.8,-4.69,-6.81,-6.51,0,*65
1485903911.0,1021,9.81,73250.8,-4.69,-6.69,-6.55,0,*66
1485903912.22,1022,9.88,73252.3,-4.69,-6.77,-6.55,0,*6A
1485903913.41,1023,9.88,73252.5,-4.71,-6.81,-6.59,0,*67
1485903914.62,1024,9.81,73254.3,-4.69,-6.77,-6.55,0,*6C
1485903915.84,1025,9.81,73252.5,-4.69,-6.77,-6.55,0,*6D
1485903917.05,1026,9.81,73252.0,-4.69,-6.77,-6.55,0,*6E
1485903918.27,1027,9.81,73250.3,-4.69,-6.81,-6.55,0,*66
1485903919.46,1028,9.81,73254.5,-4.71,-6.81,-6.59,0,*6C
1485903920.67,1029,9.81,73252.8,-4.69,-6.81,-6.55,0,*68
1485903921.91,1030,9.81,73254.5,-4.69,-6.77,-6.63,0,*6C
1485903923.12,1031,9.81,73252.5,-4.69,-6.81,-6.55,0,*61
1485903924.34,1032,9.88,73256.5,-4.69,-6.81,-6.51,0,*66
1485903925.53,1033,9.81,73254.8,-4.71,-6.81,-6.59,0,*66
1485903926.71,1034,9.81,73252.5,-4.71,-6.73,-6.59,0,*6C
1485903927.9,1035,9.81,73254.8,-4.71,-6.69,-6.59,0,*66
1485903929.1,1036,9.88,73258.5,-4.69,-6.69,-6.55,0,*60
1485903930.31,1037,9.88,73258.8,-4.69,-6.69,-6.55,0,*61
1485903931.52,1038,9.88,73256.3,-4.69,-6.69,-6.55,0,*6E
1485903932.7,1039,9.81,73256.8,-4.71,-6.69,-6.55,0,*66
1485903933.88,1040,9.81,73254.0,-4.71,-6.73,-6.55,0,*63
1485903935.1,1041,9.81,73254.8,-4.69,-6.77,-6.51,0,*6B
1485903936.28,1042,9.81,73252.3,-4.71,-6.69,-6.55,0,*6A
1485903937.46,1043,9.81,73254.8,-4.71,-6.73,-6.55,0,*60
1485903938.67,1044,9.81,73256.5,-4.69,-6.69,-6.51,0,*61
1485903939.86,1045,9.81,73256.5,-4.71,-6.73,-6.55,0,*66
1485903941.04,1046,9.88,73258.8,-4.71,-6.73,-6.55,0,*65
1485903942.25,1047,9.81,73252.8,-4.69,-6.69,-6.51,0,*62
1485903943.44,1048,9.81,73254.8,-4.71,-6.55,-6.43,0,*68
1485903944.65,1049,9.88,73256.8,-4.69,-6.59,-6.47,0,*68
1485903945.84,1050,9.81,73256.0,-4.71,-6.55,-6.43,0,*61
1485903947.05,1051,9.81,73258.5,-4.69,-6.51,-6.39,0,*60
1485903948.24,1052,9.88,73256.3,-4.71,-6.47,-6.43,0,*60
1485903949.42,1053,9.81,73256.3,-4.71,-6.43,-6.39,0,*68
1485903950.61,1054,9.88,73258.8,-4.71,-6.43,-6.31,0,*67
1485903951.81,1055,9.88,73258.3,-4.71,-6.39,-6.27,0,*6C
1485903953.05,1056,9.81,73258.0,-4.69,-6.39,-6.27,0,*66
1485903954.23,1057,9.81,73258.5,-4.71,-6.47,-6.31,0,*60
1485903955.46,1058,9.81,73258.8,-4.69,-6.39,-6.27,0,*68
1485903956.65,1059,9.81,73256.3,-4.71,-6.47,-6.39,0,*66
1485903957.83,1060,9.81,73256.8,-4.71,-6.47,-6.39,0,*6C
1485903959.06,1061,9.81,73258.3,-4.69,-6.39,-6.27,0,*62
1485903960.29,1062,9.88,73256.5,-4.69,-6.43,-6.27,0,*6C
1485903961.48,1063,9.81,73258.0,-4.71,-6.47,-6.31,0,*67
1485903962.71,1064,9.81,73256.0,-4.69,-6.39,-6.27,0,*67
1485903963.9,1065,9.88,73256.8,-4.71,-6.43,-6.31,0,*65
1485903965.14,1066,9.88,73262.0,-4.69,-6.39,-6.27,0,*65
1485903966.33,1067,9.88,73256.0,-4.71,-6.43,-6.31,0,*67
1485903967.51,1068,9.81,73254.3,-4.71,-6.47,-6.31,0,*6C
1485903968.7,1069,9.81,73256.3,-4.71,-6.43,-6.31,0,*69
1485903969.9,1070,9.81,73258.0,-4.71,-6.47,-6.31,0,*65
1485903971.12,1071,9.81,73258.8,-4.69,-6.39,-6.23,0,*67
1485903972.35,1072,9.81,73258.0,-4.69,-6.39,-6.27,0,*60
1485903973.58,1073,9.88,73260.0,-4.69,-6.39,-6.23,0,*65
1485903974.81,1074,9.81,73256.8,-4.69,-6.39,-6.23,0,*62
1485903976.02,1075,9.81,73258.3,-4.71,-6.39,-6.27,0,*6E
1485903977.22,1076,9.81,73256.3,-4.71,-6.39,-6.27,0,*6D
1485903978.46,1077,9.88,73262.8,-4.69,-6.35,-6.23,0,*6D
1485903979.69,1078,9.88,73262.3,-4.69,-6.35,-6.23,0,*62
1485903980.93,1079,9.88,73262.0,-4.69,-6.35,-6.23,0,*63
1485903982.14,1080,9.88,73260.8,-4.71,-6.43,-6.27,0,*69
1485903983.35,1081,9.88,73260.8,-4.71,-6.35,-6.23,0,*6D
1485903984.6,1082,9.88,73262.5,-4.69,-6.27,-6.23,0,*64
1485903985.83,1083,9.81,73262.0,-4.69,-6.27,-6.13,0,*66
1485903987.08,1084,9.81,73258.5,-4.69,-6.27,-6.23,0,*62
1485903988.3,1085,9.88,73260.0,-4.69,-6.35,-6.13,0,*63
1485903989.53,1086,9.81,73256.3,-4.69,-6.27,-6.13,0,*63
1485903990.74,1087,9.81,73260.3,-4.71,-6.31,-6.19,0,*66
1485903991.97,1088,9.81,73256.3,-4.69,-6.27,-6.13,0,*6D
1485903993.18,1089,9.81,73260.5,-4.69,-6.13,-6.01,0,*68
1485903994.41,1090,9.81,73256.0,-4.69,-6.23,-6.09,0,*6B
1485903995.64,1091,9.81,73260.3,-4.69,-6.23,-6.09,0,*6A
1485903996.87,1092,9.81,73256.8,-4.69,-6.23,-6.01,0,*61
1485903998.1,1093,9.81,73258.5,-4.69,-6.23,-6.01,0,*60
1485903999.34,1094,9.81,73258.3,-4.69,-6.23,-6.09,0,*6F
1485904000.54,1095,9.81,73252.5,-4.71,-6.27,-6.13,0,*68
1485904001.77,1096,9.88,73258.5,-4.69,-6.23,-6.09,0,*6D
1485904002.98,1097,9.81,73256.5,-4.67,-6.13,-6.01,0,*69
1485904004.19,1098,9.88,73258.8,-4.71,-6.23,-6.13,0,*61
1485904005.42,1099,9.81,73256.3,-4.69,-6.27,-6.13,0,*6D
1485904006.65,1100,9.81,73254.3,-4.69,-6.27,-6.13,0,*6C
1485904007.83,1101,9.81,73256.0,-4.71,-6.31,-6.13,0,*63
1485904009.07,1102,9.88,73258.5,-4.67,-6.23,-6.09,0,*6F
1485904010.3,1103,9.88,73256.0,-4.69,-6.23,-6.01,0,*68
1485904011.5,1104,9.81,73252.3,-4.71,-6.27,-6.05,0,*66
1485904012.71,1105,9.81,73252.0,-4.67,-6.13,-6.09,0,*6B
1485904013.93,1106,9.81,73256.5,-4.67,-6.13,-5.97,0,*6C
1485904015.14,1107,9.81,73256.8,-4.67,-6.13,-5.97,0,*6D
1485904016.38,1108,9.81,73258.0,-4.67,-6.23,-5.97,0,*61
1485904017.59,1109,9.81,73252.0,-4.67,-6.13,-6.09,0,*67
1485904018.8,1110,9.81,73256.5,-4.67,-6.13,-6.09,0,*6F
1485904020.02,1111,9.88,73258.8,-4.67,-6.13,-6.09,0,*6E
1485904021.23,1112,9.88,73258.0,-4.67,-6.09,-6.13,0,*6D
1485904022.44,1113,9.81,73254.0,-4.69,-6.09,-6.09,0,*69
1485904023.66,1114,9.81,73258.5,-4.67,-6.09,-6.09,0,*60
1485904024.87,1115,9.88,73256.3,-4.67,-6.13,-6.09,0,*6A
1485904026.09,1116,9.81,73256.3,-4.67,-6.09,-6.01,0,*6A
1485904027.3,1117,9.81,73252.5,-4.67,-6.09,-6.13,0,*68
1485904028.49,1118,9.81,73254.5,-4.65,-6.09,-5.97,0,*6A
1485904029.71,1119,9.81,73252.8,-4.67,-6.09,-6.09,0,*6D
1485904030.92,1120,9.81,73258.5,-4.67,-6.13,-6.09,0,*6C
1485904032.13,1121,9.81,73252.3,-4.67,-6.13,-6.13,0,*66
1485904033.35,1122,9.81,73252.8,-4.67,-6.13,-6.09,0,*6E
1485904034.61,1123,9.81,73258.8,-4.67,-6.23,-6.23,0,*64
1485904035.84,1124,9.81,73256.3,-4.69,-6.23,-6.13,0,*6E
1485904037.07,1125,9.81,73256.3,-4.69,-6.23,-6.13,0,*6F
1485904038.33,1126,9.81,73258.0,-4.69,-6.23,-6.23,0,*6F
1485904039.56,1127,9.81,73256.8,-4.69,-6.23,-6.13,0,*6D
1485904040.79,1128,9.81,73258.8,-4.69,-6.23,-6.13,0,*62
1485904042.0,1129,9.81,73256.0,-4.69,-6.13,-6.13,0,*60
1485904043.23,1130,9.88,73260.0,-4.69,-6.23,-6.13,0,*6B
1485904044.49,1131,9.81,73256.0,-4.69,-6.23,-6.23,0,*69
1485904045.7,1132,9.81,73256.3,-4.69,-6.13,-6.13,0,*6A
1485904046.95,1133,9.88,73256.3,-4.69,-6.23,-6.23,0,*6B
1485904048.18,1134,9.81,73258.3,-4.69,-6.13,-6.23,0,*6F
1485904049.42,1135,9.81,73256.5,-4.69,-6.13,-6.23,0,*6E
1485904050.65,1136,9.81,73254.5,-4.69,-6.23,-6.13,0,*6D
1485904051.88,1137,9.88,73258.0,-4.69,-6.13,-6.23,0,*6C
1485904053.09,1138,9.81,73252.8,-4.67,-6.13,-6.13,0,*6E
1485904054.33,1139,9.81,73256.0,-4.69,-6.09,-6.23,0,*69
1485904055.54,1140,9.81,73256.8,-4.69,-6.13,-6.13,0,*6F
1485904056.77,1141,9.81,73258.8,-4.69,-6.13,-6.23,0,*6D
1485904058.03,1142,9.81,73256.3,-4.69,-6.23,-6.23,0,*6D
1485904059.29,1143,9.81,73258.3,-4.67,-6.23,-6.23,0,*62
1485904060.52,1144,9.81,73258.0,-4.67,-6.13,-6.23,0,*66
1485904061.76,1145,9.81,73258.0,-4.67,-6.13,-6.23,0,*67
1485904062.97,1146,9.88,73260.0,-4.67,-6.13,-6.13,0,*67
1485904064.21,1147,9.81,73258.5,-4.67,-6.13,-6.23,0,*65
1485904065.45,1148,9.81,73258.0,-4.67,-6.23,-6.13,0,*6A
1485904066.66,1149,9.81,73256.3,-4.67,-6.13,-6.13,0,*68
1485904067.87,1150,9.81,73258.3,-4.69,-6.13,-6.13,0,*6E
1485904069.08,1151,9.81,73258.0,-4.69,-6.09,-6.13,0,*64
1485904070.3,1152,9.88,73260.8,-4.67,-6.13,-6.13,0,*62
1485904071.51,1153,9.81,73256.8,-4.67,-6.09,-6.13,0,*68
1485904072.73,1154,9.81,73258.5,-4.67,-6.09,-6.13,0,*6F
1485904073.94,1155,9.88,73260.8,-4.67,-6.09,-6.13,0,*6E
1485904075.16,1156,9.81,73258.8,-4.67,-6.09,-6.09,0,*66
1485904076.38,1157,9.81,73256.3,-4.67,-6.09,-6.13,0,*6C
1485904077.59,1158,9.81,73258.5,-4.67,-6.01,-6.09,0,*60
1485904078.77,1159,9.88,73260.0,-4.65,-5.97,-6.05,0,*63
1485904079.99,1160,9.88,73260.8,-4.67,-6.09,-6.01,0,*6B
1485904081.2,1161,9.81,73258.8,-4.67,-6.01,-6.09,0,*6A
1485904082.42,1162,9.81,73256.0,-4.67,-6.01,-6.09,0,*69
1485904083.63,1163,9.88,73260.0,-4.67,-6.09,-6.09,0,*60
1485904084.82,1164,9.81,73258.0,-4.65,-6.01,-6.09,0,*6D
1485904086.03,1165,9.81,73258.5,-4.67,-6.01,-6.09,0,*6E
1485904087.25,1166,9.81,73256.8,-4.67,-6.09,-6.09,0,*65
1485904088.46,1167,9.81,73258.3,-4.67,-6.09,-6.09,0,*64
1485904089.68,1168,9.81,73256.5,-4.67,-6.01,-6.01,0,*6B
1485904090.86,1169,9.81,73256.8,-4.65,-6.05,-6.05,0,*68
1485904092.07,1170,9.81,73258.3,-4.67,-6.01,-6.09,0,*6A
1485904093.29,1171,9.81,73258.0,-4.67,-6.09,-6.09,0,*63
1485904094.5,1172,9.81,73254.5,-4.69,-6.01,-6.09,0,*66
1485904095.71,1173,9.81,73258.8,-4.67,-6.09,-6.01,0,*69
1485904096.93,1174,9.81,73256.8,-4.67,-6.01,-6.09,0,*6E
1485904098.14,1175,9.81,73256.8,-4.67,-6.01,-6.09,0,*6F
1485904099.36,1176,9.81,73256.0,-4.67,-6.09,-6.09,0,*64
1485904100.54,1177,9.81,73258.0,-4.65,-5.97,-6.05,0,*6F
1485904101.76,1178,9.88,73258.3,-4.67,-6.01,-6.09,0,*62
1485904102.94,1179,9.81,73258.3,-4.65,-6.05,-6.09,0,*65
1485904104.16,1180,9.81,73258.0,-4.67,-6.09,-6.13,0,*66
1485904105.34,1181,9.81,73258.0,-4.65,-6.05,-6.09,0,*62
1485904106.58,1182,9.88,73260.0,-4.67,-6.13,-6.23,0,*6C
1485904107.77,1183,9.81,73256.5,-4.65,-6.09,-6.09,0,*6C
1485904108.96,1184,9.81,73256.0,-4.65,-6.09,-6.13,0,*60
1485904110.17,1185,9.88,73260.8,-4.67,-6.13,-6.13,0,*68
1485904111.36,1186,9.88,73262.3,-4.65,-6.09,-6.09,0,*69
1485904112.57,1187,9.88,73258.3,-4.67,-6.01,-6.13,0,*69
1485904113.79,1188,9.81,73258.0,-4.67,-6.13,-6.13,0,*65
1485904115.0,1189,9.88,73258.8,-4.67,-6.13,-6.09,0,*6F
1485904116.21,1190,9.81,73256.8,-4.67,-6.01,-6.13,0,*6F
1485904117.43,1191,9.81,73258.0,-4.67,-6.09,-6.09,0,*6D
1485904118.67,1192,9.88,73260.0,-4.67,-6.09,-6.23,0,*66
1485904119.88,1193,9.81,73258.5,-4.65,-6.19,-6.09,0,*6C
1485904121.12,1194,9.81,73258.3,-4.67,-6.13,-6.23,0,*6B
1485904122.36,1195,9.81,73258.3,-4.67,-6.13,-6.23,0,*6A
1485904123.62,1196,9.81,73256.0,-4.67,-6.23,-6.23,0,*6A
1485904124.88,1197,9.81,73258.5,-4.67,-6.23,-6.23,0,*6B
1485904126.14,1198,9.81,73256.8,-4.67,-6.23,-6.23,0,*64